Precipitable_Water
0.28 0.25 0.23 0.28 0.31 0.32 0.28 0.26 0.25 0.28 0.29 0.26 0.25 0.27 0.30 0.35 0.37 0.38 0.43 0.58 0.72 0.94 1.07 1.12 1.21 1.21 1.26 1.35 1.39 1.38 1.40 1.49 1.56 1.54 1.44 1.41 1.34 1.39 1.46 1.67 1.80 1.82 1.80 1.81
0.27 0.24 0.30 0.33 0.34 0.32 0.29 0.26 0.24 0.25 0.26 0.25 0.24 0.23 0.26 0.31 0.35 0.38 0.39 0.44 0.50 0.58 0.68 1.05 1.17 1.24 1.18 1.24 1.34 1.37 1.36 1.43 1.49 1.51 1.49 1.50 1.43 1.44 1.40 1.49 1.65 1.79 1.84 1.95
0.25 0.28 0.31 0.30 0.29 0.26 0.24 0.21 0.21 0.21 0.24 0.26 0.25 0.22 0.26 0.28 0.33 0.36 0.39 0.42 0.44 0.49 0.51 0.75 0.99 1.12 1.18 1.20 1.27 1.35 1.39 1.39 1.48 1.51 1.54 1.55 1.55 1.50 1.40 1.36 1.49 1.73 1.84 1.91
0.27 0.30 0.28 0.28 0.26 0.27 0.22 0.25 0.24 0.22 0.21 0.16 0.21 0.15 0.22 0.26 0.32 0.39 0.42 0.46 0.48 0.49 0.53 0.51 0.81 0.94 1.04 1.13 1.32 1.38 1.48 1.37 1.46 1.52 1.48 1.44 1.38 1.29 1.37 1.37 1.44 1.65 1.83 1.85
0.26 0.29 0.27 0.25 0.25 0.27 0.24 0.25 0.23 0.22 0.21 0.23 0.23 0.25 0.27 0.38 0.36 0.40 0.46 0.50 0.54 0.56 0.57 0.59 0.70 0.86 0.97 1.12 1.29 1.34 1.52 1.50 1.42 1.47 1.49 1.44 1.38 1.43 1.48 1.44 1.45 1.59 1.78 1.83
0.35 0.40 0.35 0.32 0.31 0.30 0.29 0.23 0.23 0.23 0.23 0.19 0.25 0.31 0.30 0.37 0.41 0.43 0.41 0.46 0.53 0.66 0.74 0.76 0.96 0.95 0.92 1.12 1.34 1.38 1.46 1.48 1.45 1.41 1.44 1.45 1.38 1.38 1.40 1.39 1.40 1.52 1.71 1.81
0.36 0.37 0.39 0.36 0.30 0.30 0.30 0.25 0.19 0.18 0.20 0.19 0.27 0.26 0.34 0.44 0.48 0.52 0.55 0.60 0.68 0.73 0.77 0.89 0.99 0.96 0.91 1.01 1.22 1.27 1.40 1.40 1.45 1.41 1.36 1.43 1.42 1.41 1.39 1.39 1.43 1.47 1.61 1.67
0.30 0.29 0.38 0.41 0.38 0.34 0.34 0.30 0.21 0.16 0.18 0.19 0.27 0.26 0.46 0.59 0.63 0.69 0.70 0.74 0.73 0.73 0.80 1.00 1.13 1.37 0.97 0.96 1.13 1.26 1.35 1.37 1.45 1.44 1.33 1.36 1.47 1.42 1.51 1.53 1.50 1.62 1.59 1.56
0.29 0.28 0.39 0.39 0.40 0.38 0.33 0.29 0.34 0.24 0.24 0.21 0.27 0.36 0.50 0.64 0.63 0.66 0.68 0.72 0.71 0.80 0.84 0.95 1.21 1.47 1.58 1.62 1.27 1.32 1.41 1.47 1.47 1.42 1.42 1.33 1.47 1.45 1.45 1.66 1.69 1.68 1.69 1.61
0.34 0.27 0.34 0.34 0.43 0.41 0.40 0.43 0.35 0.34 0.25 0.20 0.24 0.34 0.39 0.51 0.57 0.63 0.62 0.65 0.72 0.74 0.76 0.87 1.19 1.42 1.65 1.58 1.79 1.74 1.50 1.47 1.48 1.54 1.52 1.44 1.42 1.52 1.55 1.64 1.74 1.71 1.70 1.61
0.38 0.34 0.31 0.35 0.36 0.35 0.36 0.38 0.42 0.44 0.43 0.31 0.25 0.34 0.62 0.59 0.63 0.66 0.66 0.69 0.71 0.77 0.79 1.03 1.17 1.45 1.62 1.49 1.80 1.80 1.51 1.39 1.39 1.48 1.59 1.62 1.47 1.62 1.72 1.62 1.80 1.75 1.77 1.69
0.42 0.37 0.29 0.30 0.33 0.35 0.42 0.44 0.45 0.36 0.32 0.38 0.35 0.38 0.68 0.63 0.71 0.79 0.75 0.77 0.77 0.95 0.97 1.07 1.18 1.24 1.42 1.58 2.05 1.78 1.63 1.42 1.53 1.64 1.69 1.67 1.79 1.64 1.73 1.78 1.76 1.81 1.75 1.74
0.43 0.35 0.27 0.27 0.24 0.38 0.40 0.42 0.43 0.46 0.45 0.36 0.32 0.35 0.65 0.68 0.59 0.73 0.80 0.84 0.92 1.04 1.12 1.17 1.37 1.15 1.41 1.70 1.84 1.82 1.81 1.80 1.92 1.95 1.89 1.91 1.84 1.77 1.64 1.79 1.93 2.02 1.89 1.78
0.49 0.41 0.37 0.29 0.31 0.36 0.38 0.42 0.42 0.41 0.34 0.33 0.38 0.40 0.60 0.67 0.66 0.75 0.77 0.77 0.84 0.93 0.96 1.22 1.33 1.40 1.72 1.73 1.82 1.63 1.73 1.84 2.01 2.10 2.13 2.00 2.07 2.04 2.10 2.06 2.14 2.08 1.97 1.78
0.52 0.40 0.42 0.41 0.40 0.40 0.37 0.34 0.36 0.36 0.37 0.32 0.44 0.53 0.68 0.75 0.75 0.80 0.84 0.82 0.83 0.83 0.90 1.28 1.33 1.44 1.39 1.43 1.48 1.54 1.59 1.73 1.89 1.89 1.98 1.98 1.86 1.86 1.93 2.08 2.07 2.16 2.23 1.93
0.51 0.39 0.43 0.34 0.38 0.37 0.33 0.35 0.35 0.33 0.41 0.44 0.55 0.55 0.76 0.79 0.83 0.90 0.96 0.93 0.92 1.00 1.23 1.31 1.31 1.37 1.19 1.14 1.15 1.35 1.41 1.53 1.75 1.94 2.15 2.02 1.90 1.78 1.74 1.87 2.08 2.07 2.07 2.31
0.38 0.31 0.29 0.27 0.36 0.35 0.27 0.43 0.48 0.55 0.60 0.55 0.43 0.65 0.80 0.78 0.83 0.93 0.94 0.99 0.98 1.14 1.26 1.39 1.39 1.30 1.19 1.18 1.14 1.18 1.21 1.36 1.57 1.79 1.81 1.83 1.76 1.68 1.77 1.75 1.85 2.06 1.96 1.97
0.33 0.33 0.32 0.28 0.38 0.27 0.51 0.73 0.73 0.62 0.61 0.61 0.59 0.64 0.81 0.87 0.92 0.95 1.05 1.08 1.03 1.18 1.33 1.45 1.46 1.42 1.35 1.28 1.20 1.22 1.27 1.26 1.51 1.62 1.63 1.54 1.40 1.43 1.49 1.53 1.61 1.73 1.79 2.03
0.48 0.43 0.37 0.37 0.40 0.45 0.52 0.62 0.64 0.60 0.59 0.81 0.81 0.77 0.81 0.88 0.93 0.82 1.03 1.17 1.18 1.31 1.41 1.52 1.54 1.51 1.45 1.45 1.44 1.39 1.38 1.38 1.49 1.65 1.72 1.63 1.55 1.42 1.40 1.37 1.52 1.70 1.64 1.64
0.68 0.66 0.51 0.47 0.38 0.37 0.60 0.70 0.81 0.82 0.54 0.89 0.86 0.79 0.77 0.77 0.61 0.73 0.92 1.11 1.25 1.37 1.41 1.45 1.45 1.43 1.40 1.39 1.38 1.41 1.42 1.45 1.40 1.52 1.56 1.62 1.65 1.60 1.55 1.57 1.60 1.71 1.81 1.77
0.53 0.61 0.49 0.50 0.48 0.46 0.72 0.78 0.80 0.50 0.56 0.87 1.10 0.88 0.77 0.71 0.84 1.05 1.04 1.06 1.28 1.29 1.32 1.49 1.44 1.35 1.33 1.28 1.23 1.21 1.23 1.21 1.28 1.30 1.29 1.30 1.33 1.40 1.43 1.53 1.65 1.71 1.78 1.83
0.52 0.56 0.51 0.48 0.38 0.32 0.82 0.81 0.63 0.76 0.89 0.93 1.06 1.04 0.90 0.80 0.93 1.02 1.10 1.23 1.26 1.33 1.35 1.38 1.35 1.24 1.25 1.17 1.08 1.02 0.99 1.08 1.10 1.08 1.06 1.13 1.17 1.21 1.24 1.24 1.36 1.41 1.43 1.45
0.51 0.57 0.48 0.48 0.46 0.69 0.78 0.71 0.88 0.91 0.91 0.94 0.98 1.00 0.97 0.92 0.89 1.05 1.10 1.22 1.39 1.34 1.37 1.33 1.25 1.19 1.18 1.18 1.15 1.01 1.04 1.07 1.04 1.04 1.00 1.00 1.04 1.14 1.13 1.12 1.18 1.19 1.31 1.30
0.59 0.69 0.63 0.56 0.59 0.61 0.68 0.83 0.91 0.90 0.87 0.92 0.98 1.08 1.04 1.01 1.12 1.15 1.20 1.22 1.26 1.29 1.33 1.29 1.21 1.18 1.15 1.16 1.17 1.18 1.14 1.13 1.06 0.96 0.99 1.06 1.05 1.02 1.12 1.15 1.13 1.11 1.12 1.20
0.63 0.67 0.60 0.57 0.60 0.63 0.67 0.76 0.79 0.80 0.91 0.97 1.08 1.12 1.12 1.11 1.07 1.19 1.20 1.22 1.25 1.26 1.26 1.27 1.18 1.13 1.13 1.15 1.10 1.10 1.07 1.10 1.04 1.03 1.03 0.93 0.93 0.93 0.92 1.02 1.08 1.11 1.15 1.13
0.64 0.64 0.53 0.48 0.56 0.57 0.61 0.77 0.85 0.76 0.89 1.07 1.07 1.00 1.04 1.06 1.08 1.19 1.16 1.19 1.20 1.15 1.17 1.15 1.11 1.12 1.16 1.20 1.20 1.16 1.10 1.04 0.98 0.92 0.88 0.88 0.83 0.86 0.91 0.86 0.90 1.09 1.11 1.13
Wind_Speed
13 12 13 15 15 18 19 21 23 22 23 24 23 24 22 20 19 16 20 21 22 22 26 27 25 22 21 20 19 20 17 16 14 12 11 10 9 8 7 7 6 8 11 12
13 14 17 18 19 20 20 21 22 23 22 21 21 22 23 24 23 22 21 20 21 20 20 27 28 27 24 23 22 21 21 19 17 15 13 11 10 9 8 8 8 9 10 11
14 16 18 18 18 18 17 20 22 25 20 20 20 22 21 21 25 29 26 25 26 26 24 27 30 31 29 27 25 23 24 22 20 18 15 13 11 10 10 9 10 10 11 12
15 14 15 17 16 17 18 19 23 24 19 18 19 24 20 20 20 17 21 24 25 26 28 27 31 36 35 31 29 26 26 24 22 21 18 17 14 12 11 10 9 10 11 12
15 18 18 18 17 16 17 20 19 19 19 17 21 17 21 15 18 19 22 24 24 25 21 19 31 37 37 33 32 29 28 27 25 24 21 19 17 15 13 11 9 10 10 11
17 20 19 17 17 13 18 18 19 18 18 17 23 12 17 17 18 22 22 27 26 21 21 22 25 38 39 35 34 31 31 29 27 26 24 22 20 16 15 13 11 10 10 11
16 15 15 12 12 16 17 17 17 17 14 15 16 15 14 18 20 19 19 18 19 20 16 17 21 34 36 37 36 33 34 31 30 28 27 25 22 20 17 15 13 11 10 10
10 12 13 18 16 16 19 14 13 17 17 21 18 18 12 16 14 14 15 15 14 19 18 18 16 22 38 37 36 34 36 34 32 30 29 27 25 22 19 17 15 13 11 10
12 16 21 20 22 20 18 17 17 18 20 19 14 14 15 18 16 17 17 11 9 13 15 14 16 20 28 28 36 33 35 35 33 31 30 29 27 26 23 19 17 15 12 10
15 17 18 22 21 18 16 20 16 16 16 17 15 12 13 15 16 19 19 15 12 15 15 16 16 19 29 28 27 33 35 36 34 32 30 30 28 28 26 23 20 17 15 13
16 17 20 20 15 20 18 16 14 13 12 14 16 14 13 16 18 20 18 16 14 16 20 16 19 18 27 26 24 31 34 34 33 32 30 30 32 30 28 27 24 21 18 15
15 17 19 22 23 21 17 12 13 12 17 16 15 17 13 15 16 17 20 21 19 17 18 22 18 14 23 14 28 33 35 33 32 30 29 30 31 33 32 29 28 26 22 19
16 17 19 22 16 12 12 18 18 16 16 17 17 17 14 14 16 18 20 22 21 19 19 19 20 21 24 32 15 17 24 32 32 31 30 29 30 34 34 33 30 29 26 23
16 17 17 19 19 21 24 23 22 21 19 19 19 22 17 17 17 19 22 25 24 21 21 16 11 9 14 16 13 13 15 21 26 30 28 26 24 26 30 33 33 33 31 28
16 18 20 23 23 24 25 26 25 24 24 23 18 13 17 18 20 20 20 20 19 20 20 17 13 10 12 11 11 13 15 16 19 22 22 21 23 24 27 27 29 27 38 31
21 22 22 23 23 24 25 25 25 24 17 14 12 15 19 20 21 21 21 19 19 17 11 12 11 12 14 11 9 12 14 16 18 20 21 25 26 25 27 30 30 25 28 29
24 23 22 24 21 22 20 19 16 12 14 16 16 19 20 20 16 17 18 16 14 12 8 7 9 9 10 13 14 13 11 13 17 17 19 20 23 27 28 30 34 35 43 32
24 21 21 23 20 19 12 13 12 12 14 16 17 19 19 18 17 17 16 15 13 11 9 8 9 9 8 8 9 12 13 11 14 16 16 14 18 18 23 29 29 29 15 16
22 21 18 17 16 19 14 15 15 15 18 17 18 16 15 16 12 13 13 13 10 8 8 7 6 7 6 7 7 7 7 8 7 13 15 14 16 16 16 18 24 21 25 20
9 10 12 13 13 15 13 18 15 15 17 16 13 11 13 13 12 13 11 10 8 7 8 9 6 4 3 5 4 3 4 3 5 5 8 11 11 12 14 14 12 16 19 23
15 16 13 12 15 16 14 17 19 15 16 17 19 11 11 11 12 10 10 12 11 8 5 3 3 4 3 3 2 2 2 3 4 4 5 7 8 9 10 12 13 14 16 19
13 13 13 14 15 15 14 14 12 13 15 16 13 10 11 11 11 9 10 8 8 7 5 4 4 3 2 2 1 2 2 3 4 4 5 6 7 8 9 11 13 16 20 23
12 12 13 13 14 18 15 15 14 16 15 15 14 12 12 10 7 8 6 7 4 6 5 5 5 4 3 2 3 3 4 4 5 5 7 7 8 7 7 8 9 12 13 15
13 13 12 11 11 15 15 14 14 16 16 14 13 11 10 10 7 6 4 4 6 4 4 5 5 5 4 4 5 5 6 7 8 7 7 8 8 8 7 7 6 7 7 9
13 12 13 13 16 16 16 14 17 18 15 12 10 9 8 7 7 7 5 4 5 4 4 5 5 5 6 6 7 8 8 8 7 8 8 9 9 8 8 8 8 8 8 7
11 10 12 13 15 15 14 15 16 16 12 9 8 8 7 7 6 6 6 4 5 6 6 5 5 6 7 8 8 8 8 9 9 10 10 10 10 9 8 8 9 9 8 8
Wind_Direction
287 283 281 278 277 277 285 288 292 299 302 296 291 285 283 277 275 279 260 239 244 232 238 236 232 227 224 223 221 220 219 217 214 214 210 211 213 214 214 214 211 213 219 223
292 284 278 279 281 282 283 290 295 297 300 296 294 290 286 273 267 264 263 255 243 242 244 235 230 228 227 226 224 223 220 218 217 215 213 213 213 219 223 224 230 230 228 225
280 284 290 283 283 288 290 298 301 303 296 297 299 296 292 282 272 264 261 263 253 248 249 237 232 232 231 227 226 226 219 218 217 214 214 215 218 225 227 231 234 239 234 233
290 300 297 298 294 295 296 299 305 305 309 300 303 297 296 287 282 277 268 264 260 255 250 242 236 235 229 229 225 224 220 218 219 216 216 217 220 225 230 234 239 242 240 239
292 298 297 296 295 297 296 306 305 303 302 302 298 295 297 294 291 284 274 266 259 258 248 255 243 232 228 225 221 222 219 218 218 218 219 220 223 228 231 234 242 243 241 244
291 290 284 282 287 294 299 300 300 301 300 300 296 294 300 300 293 291 291 269 254 259 251 268 282 226 222 222 219 220 218 219 219 219 221 222 224 226 228 233 239 248 245 248
309 308 303 285 286 303 305 314 309 313 314 300 313 303 289 304 303 293 299 290 254 248 251 286 282 220 216 216 216 219 217 219 218 219 222 224 226 227 229 232 238 245 247 250
308 303 345 319 311 298 305 293 295 298 300 300 307 304 321 329 345 340 330 309 266 241 255 283 278 238 216 215 215 219 216 217 218 219 222 224 225 228 231 233 237 243 247 252
296 292 302 305 303 304 298 297 289 291 294 298 294 302 305 328 333 330 330 314 288 225 271 270 263 233 215 217 217 219 217 218 218 220 222 223 226 226 229 232 235 239 246 251
298 299 302 302 304 296 301 306 300 295 302 299 300 296 292 316 318 323 327 313 284 256 277 272 259 246 221 216 225 226 218 218 221 222 224 226 226 227 228 230 233 235 242 246
297 294 301 306 302 306 304 300 303 298 292 291 299 294 286 295 307 315 317 311 295 275 282 268 278 260 219 217 233 225 218 218 221 223 226 228 227 228 229 231 233 236 238 239
293 294 298 300 299 288 290 300 301 296 293 285 282 287 284 297 308 304 305 308 301 293 282 271 280 267 231 257 241 217 217 219 222 223 227 230 230 229 230 232 233 233 236 236
291 293 301 305 304 288 304 301 298 294 291 281 283 286 288 298 305 312 312 314 310 301 291 288 285 248 255 256 260 219 223 223 225 227 228 231 233 231 232 233 233 232 233 234
283 283 282 286 286 287 294 300 298 291 289 288 275 280 291 294 298 300 307 311 306 303 300 282 288 259 231 240 241 231 233 231 231 231 234 235 235 235 233 235 235 233 230 229
290 288 291 290 294 295 295 294 292 286 286 284 296 283 285 290 292 294 301 309 316 304 295 271 258 262 263 254 248 240 239 237 236 231 229 227 233 238 237 238 237 243 229 225
287 286 288 288 290 289 292 293 290 285 286 286 286 281 282 288 291 293 296 301 305 308 289 245 251 264 265 264 259 242 246 248 246 242 237 233 240 244 244 244 240 245 246 219
279 278 281 282 287 290 293 304 302 290 295 287 286 286 284 289 292 302 297 299 307 300 296 257 252 270 283 265 265 268 259 251 257 256 251 249 248 248 250 250 251 259 261 261
268 268 271 277 284 282 289 311 312 291 294 290 289 290 294 297 280 287 289 289 298 292 285 274 261 266 278 284 280 274 258 260 269 250 253 257 260 263 254 253 254 260 298 218
260 262 271 274 276 287 284 301 296 295 286 287 289 290 293 304 288 289 286 285 289 279 281 280 271 271 288 297 301 298 275 261 298 250 253 263 266 269 278 268 263 257 247 248
265 268 265 279 282 282 270 300 290 289 290 290 288 287 300 315 299 272 272 279 283 281 285 264 254 264 295 317 311 304 326 269 295 294 273 269 275 278 270 271 269 257 242 248
270 275 267 265 269 277 281 296 296 284 287 287 284 277 297 302 308 280 274 261 264 272 258 237 230 247 278 320 338 316 335 327 318 300 303 290 285 288 277 268 267 258 251 248
259 265 277 279 272 271 278 290 296 290 297 288 290 295 285 296 306 290 266 272 251 238 237 230 225 219 255 299 331 13 3 346 342 331 330 328 315 302 294 280 271 265 262 256
264 265 269 267 271 281 274 282 287 291 293 300 291 292 283 278 291 304 273 239 221 192 212 217 215 226 251 264 272 286 302 313 312 320 326 329 333 328 328 311 287 282 277 266
280 274 270 290 277 285 291 284 285 295 291 287 283 275 276 266 269 286 274 253 231 222 212 209 215 233 260 272 276 284 296 300 304 309 314 318 316 320 321 322 325 322 303 279
276 273 275 282 286 279 289 290 294 296 285 279 270 266 263 255 267 258 251 238 220 205 217 222 236 252 275 279 281 286 290 296 303 310 313 315 314 312 307 308 305 309 314 310
269 273 283 280 289 283 287 289 294 289 277 267 257 255 254 252 253 249 248 244 226 223 229 237 254 261 274 286 289 290 288 293 295 298 303 310 308 302 300 301 303 297 293 292